Location: ??????
(42.0089°N, 44.3281°E)
Time: 20:35:00
(UTC+00:00)

Okean 1-7 Rocket - Pass Details

Date: 04 June 2022
Orbit: 616 x 648 km, 82.5° (Epoch: 30 June)

Event Time Altitude Azimuth Distance (km) Brightness Sun altitude
Exits shadow 22:17:50 - 116° (ESE) 2,171 6.3 -23.1°
Reaches altitude 10° 22:18:52 10° 105° (ESE) 1,981 6.2 -23.0°
Maximum altitude 22:20:27 12° 83° (E) 1,864 6.3 -22.9°
Drops below altitude 10° 22:22:02 10° 62° (ENE) 1,985 6.8 -22.8°
Sets 22:25:38 0° 31° (NNE) 2,896 8.4 -22.6°
